Terminal Aerodrome Forecast
Issued by NWS

Home | Current Version | Previous Version | Text Only | Print | Product List | Glossary On
Versions: 1 2 3 4 5 6 7 8 9 10 11 12 13 14 15 16 17 18 19 20 21 22 23 24 25 26 27 28 29 30
000
FTPA31 PHFO 211100
TAFMDY
TAF
PMDY 211125Z 2112/2212 36012G20KT P6SM FEW035 BKN070
     FM212000 04012G18KT P6SM FEW030 SCT060
      AMD LTD TO CLD AND WIND=

USA.gov is the U.S. government's official web portal to all federal, state and local government web resources and services.